Regional Weather Roundup
Issued by NWS Wakefield, VA

Home | Current Version | Previous Version | Graphics & Text | Print | Product List | Glossary On
Versions: 1 2 3 4 5 6 7 8 9 10 11 12 13 14 15 16 17 18 19 20 21 22 23 24 25 26 27 28 29 30 31 32 33 34 35 36 37 38 39 40 41 42 43 44 45 46 47 48 49 50
000
ASUS41 KAKQ 170215
RWRAKQ

REGIONAL WEATHER ROUNDUP
NATIONAL WEATHER SERVICE WAKEFIELD VA
900 PM EST MON JAN 16 2017

Note: "fair" indicates few or no clouds below 12,000 feet with no
significant weather and/or obstructions to visibility. * = Denotes
station may not report precipitation (e.g., rain,snow,etc.),
thunder or fog.

VAZ042-051-052>054-056-170300-
NORTHERN VIRGINIA

CITY           SKY/WX    TMP DP  RH WIND       PRES   REMARKS
WASH NATIONAL  CLOUDY    43  33  68 S7        30.35F
DULLES         CLOUDY    42  31  64 S5        30.34S
FORT BELVOIR   CLOUDY    41  32  69 SE3       30.35S
QUANTICO       CLOUDY    42  36  79 SW3       30.37S
FREDERICKSBRG* CLOUDY    43  37  81 SE6       30.35S
STAFFORD*      CLOUDY    41  35  79 SE3       30.39S
WARRENTON      CLOUDY    44  38  79 S3        30.33S
CULPEPER*      CLOUDY    44  41  90 S6        30.35S
MANASSAS*      CLOUDY   N/A N/A N/A CALM      30.35S
LEESBURG*      CLOUDY    45  39  81 MISG      30.33S
WINCHESTER     CLOUDY    39  36  87 CALM      30.29F
FRONT ROYAL*   CLOUDY    39  37  93 CALM      30.28F
LURAY*         CLOUDY    45  43  93 SW10      30.28F
$$

VAZ048-049-060>072-079>083-170300-
CENTRAL AND SOUTH CENTRAL VIRGINIA

CITY           SKY/WX    TMP DP  RH WIND       PRES   REMARKS
RICHMOND       CLOUDY    42  39  89 S6        30.37R
CHESTERFIELD*  CLOUDY    43  27  52 CALM      30.38S
PETERSBURG*    CLOUDY    43  39  87 CALM      30.38S
HANOVER        CLOUDY    43  37  79 S5        30.38S
TAPPAHANNOCK*  PTCLDY    43  30  60 S3        30.37S
QUINTON*       CLOUDY    42  37  83 MISG      30.37R
CHARLOTTSVILLE CLOUDY    44  41  89 S6        30.32F FOG
GORDONSVILLE*  CLOUDY    41  41  99 CALM      30.33F
ORANGE*          N/A     43  43 100 CALM      30.35S
LOUISA*        CLOUDY    45  43  93 CALM      30.33S
BUMPASS*       CLOUDY    41  39  93 CALM      30.35S
FARMVILLE*     PTCLDY    42  42 100 CALM      30.34F
CREWE*         CLOUDY    43  43 100 CALM      30.35F
FORT PICKETT*  CLOUDY    43  39  87 CALM      30.36F
CHASE CITY*    CLOUDY    45  40  82 CALM      30.35F
CLARKSVILLE*   FAIR      43  39  87 CALM      30.35S
SOUTH HILL*    CLOUDY    44  40  88 CALM      30.42S
LAWRENCEVILLE* CLOUDY    43  40  89 MISG      30.36F
EMPORIA*       CLOUDY    43  39  87 CALM      30.39F
$$

VAZ088>098-170300-
SOUTHEAST VIRGINIA

CITY           SKY/WX    TMP DP  RH WIND       PRES   REMARKS
NORFOLK        CLOUDY    44  38  79 CALM      30.37S
VIRGINIA BEACH CLOUDY    43  38  82 CALM      30.36S
NORFOLK NAVAL  CLOUDY    44  39  82 SE3       30.38S
WEST POINT*    CLOUDY    42  35  75 S5        30.39R
SALUDA*        CLOUDY    42  35  76 CALM      30.37S
NEWPORT NEWS   CLOUDY    44  35  70 S3        30.37S
LANGLEY AFB    CLOUDY    43  36  74 CALM      30.36F
FORT EUSTIS    CLOUDY    43  35  73 CALM      30.35R
WILLIAMSBURG*  CLOUDY    45  37  76 CALM      30.38R
HR EXEC AP*    CLOUDY    45  37  76 CALM      30.35F
FRANKLIN*      CLOUDY    44  40  86 CALM      30.38S
US460-WAKEFLD  CLOUDY    43  37  79 CALM      30.38R
$$

VAZ020-022-025-037-045-170300-
WEST CENTRAL AND SOUTHWEST VIRGINIA

CITY           SKY/WX    TMP DP  RH WIND       PRES   REMARKS
STAUNTON*      CLOUDY    42  39  89 S6        30.30S
WAYNESBORO*    CLOUDY    41  39  94 CALM      30.29F
HOT SPRINGS VA FOG       46  46 100 SW5       30.24F VSB 3/4
LYNCHBURG      CLOUDY    39  37  92 CALM      30.34F
DANVILLE       MOCLDY    44  34  67 CALM      30.34F
SOUTH BOSTON*  CLOUDY    40  38  92 CALM      30.34F
MARTINSVILLE   MOCLDY    44  40  87 CALM      30.36S
ROANOKE        MOCLDY    42  41  96 W5        30.34S
BLACKSBURG     FOG       43  43 100 E3        30.33S VSB 1/2
DUBLIN*        FOG       46  46 100 E3        30.31F VSB 3/4
MARION*        FOG       49  48  96 E6        30.30F VSB 1/4
HILLSVILLE*    FOG       43  43 100 CALM      30.28F VSB 1/2
RICHLANDS*     CLOUDY   N/A N/A N/A CALM      30.25S
WISE*          CLOUDY    57  45  62 S5        30.24F
ABINGDON*      CLOUDY    57  48  72 E8        30.24F
$$

MDZ021>025-VAZ099-100-170300-
SOUTHERN MARYLAND AND THE DELMARVA PENINSULA

CITY           SKY/WX    TMP DP  RH WIND       PRES   REMARKS
PATUXENT RIVER CLOUDY    42  27  55 CALM      30.36S
BAY BRIDGE APT CLOUDY    41  30  65 S5        30.36S
LEONARDTOWN    CLOUDY    41  30  65 CALM      30.38R
DOVER          CLOUDY    38  33  80 SE5       30.36R
GEORGETOWN     CLOUDY    41  31  67 CALM      30.37S
EASTON         CLOUDY    43  28  56 S5        30.40R
CAMBRIDGE      CLOUDY    41  32  70 CALM      30.36S
SALISBURY      CLOUDY    41  32  70 CALM      30.37S
OCEAN CITY     CLOUDY    42  32  67 CALM      30.38S
WALLOPS ISLAND CLOUDY    41  35  79 CALM      30.37F
ACCOMACK*      CLOUDY    42  37  81 CALM      30.36F
$$

NCZ012>017-030>032-170300-
NORTH CENTRAL AND EASTERN NORTH CAROLINA

CITY           SKY/WX    TMP DP  RH WIND       PRES   REMARKS
ROANOKE RAPIDS CLOUDY    45  41  87 CALM      30.37S
RALEIGH        CLOUDY    49  39  68 S3        30.36S
ELIZABETH CITY CLOUDY    43  39  86 N3        30.38S
AHOSKIE*         N/A     44  39  81 CALM      30.37F
EDENTON*       CLOUDY    43  40  88 CALM      30.38S
CURRITUCK*     CLOUDY    42  40  93 CALM      30.38R
KILL DEVIL HLS NOT AVBL
MANTEO         CLOUDY    42  40  92 CALM      30.37S
CAPE HATTERAS  PTCLDY    47  42  83 N6        30.35S
TARBORO*       NOT AVBL
GOLDSBORO      CLOUDY    51  45  82 CALM      30.33F
WASHINGTON     CLOUDY    46  40  78 CALM      30.37S
GREENVILLE     CLOUDY    50  45  81 E3        30.36F
NEW BERN       CLOUDY    50  43  77 NE3       30.37F
WILMINGTON     CLOUDY    53  47  79 E3        30.34F
$$

VAZ048-170300-
ELSEWHERE

CITY           SKY/WX    TMP DP  RH WIND       PRES   REMARKS
HARRISBURG PA  CLOUDY    36  30  79 CALM      30.33S
BALTIMORE      CLOUDY    40  29  64 CALM      30.35R
ANNAPOLIS      CLOUDY    42  30  62 S7        30.36S
ANDREWS AFB    CLOUDY    41  31  69 S6        30.33F
PHILADELPHIA   CLOUDY    39  26  59 S5        30.36F
HENDERSON NC   CLOUDY    44  36  72 CALM      30.35F
GREENSBORO     CLOUDY    47  44  90 S6        30.33S
ROCKY MOUNT    CLOUDY    48  43  82 CALM      30.36F
$$

VAZ100-170300-
MARINE

STATION/POSITION TIME  TEMP    WIND        PRES    WAVE   SWELL
                       AIR SEA DIR/SP/G            HT/PER HT/PER
                 (UTC) (F)     (DEG/KT/KT) (MB)    (FT/S) (FT/S)
CAPE MAY NJ      0142   39 40  120/  3/  3 1028.2S
LEWES DE         0142   40 41  170/  3/  5 1028.5S
OCEAN-CITY-INLET 0148          210/  2/  3   N/A
WACHAPREAGUE VA  0148   42 44   70/  2/  2 1028.1F
THOMAS POINT MD  0200   40 38  180/  8/  9   N/A
GOOSES REEF MD   0200   40     190/  8/ 10 1028.7
COVE POINT MD    0148   40     200/  8/  9 1028.7S
SOLOMONS ISLAND  0148          160/  3/  3   N/A
BISHOPS HEAD MD  0142   40 41  130/  3/  4 1028.4F
PINEY POINT MD   0148          190/  5/  6   N/A
POTOMAC MD       0200   40 40  180/  4/  4 1027.3
CAMBRIDGE MD     0142   42 39  170/  5/  6 1027.5S
LEWISETTA VA     0148   42 42  200/  6/  8 1027.8F
RAPPAHANNOCK LGT 0148           CALM  /  1 1028.7F
STINGRAY PT      0150   40     170/  4/  4 1028.5F
YORK RVR RNG VA  0148   42     160/  4/  4 1027.7F
YORKTOWN VA      0148   43 42  170/  4/  5 1028.0F
JAMESTOWN VA     0200   43 43  150/  4/  6   N/A     0
DOMINION TERM VA 0148   43     120/  2/  3 1028.4F
KIPTOPEKE VA     0148      43                N/A
CHES BAY BRIDGE  0148   42 42   CALM  /  1 1028.3F
CAPE HENRY VA    0148   42      CALM  /  1   N/A
WILLOUBY STN VA  0148   42     120/  4/  4 1029.1F
S CRANEY ISL VA  0148   43     130/  3/  4 1028.1F
CAPE HENRY BUOY  0142      47                N/A     2/ 9
OFFSHORE WE BUOY 0151      49                N/A     2/10
64NM E OF VA BCH 0150   54 59   30/  8/ 10 1027.5F   3/10   3/10
DUCK PIER NC     0148   45 44  340/  7/  8 1027.7R
44100 DUCK FRF   0135      46                N/A     3/10
44056 DUCK FRF   0130      44                N/A     2/11
OREGON INLET NC  0148          330/  5/  7   N/A
HATTERAS NC      0148   47 53  350/  9/ 10 1027.4R
DIAMOND SHLS NC  0150   55 73   10/ 14/ 16 1027.1F   3/ 8   2/ 8
CAPE LOOKOUT NC  0100   48      10/  7/  9 1027.7F
$$



USA.gov is the U.S. government's official web portal to all federal, state and local government web resources and services.